[Iaude] MPEC B68: 2019 AO14 [a=2.79,e=0.56,i=10.8,H=20.6]

mpec at mpcdb1.cfa.harvard.edu mpec at mpcdb1.cfa.harvard.edu
Fri Jan 25 16:23:16 EST 2019


M.P.E.C. 2019-B68                                Issued 2019 Jan. 25, 21:20 UT
 
     The Minor Planet Electronic Circulars contain information on unusual
         minor planets and routine data on comets.  They are published
    on behalf of Division F of the International Astronomical Union by the
          Minor Planet Center, Smithsonian Astrophysical Observatory,
                          Cambridge, MA 02138, U.S.A.

             Prepared using the Tamkin Foundation Computer Network

                              MPC at CFA.HARVARD.EDU
            URL https://www.minorplanetcenter.net/    ISSN 1523-6714


                                   2019 AO14
 
Observations:
     K19A14O  C2018 12 22.51095610 12 39.321+35 03 19.10         22.7 GVEB068F51
     K19A14O  C2018 12 22.52770810 12 39.350+35 03 28.70         22.3 GVEB068F51
     K19A14O  C2018 12 22.54447210 12 39.353+35 03 38.62         22.5 GVEB068F51
     K19A14O  C2018 12 22.56114410 12 39.371+35 03 47.99         22.3 GVEB068F51
     K19A14O* C2019 01 09.53058 10 03 22.701+37 51 26.66         21.9 wUEB068F51
     K19A14O  C2019 01 09.54266 10 03 21.849+37 51 32.70         21.8 wUEB068F51
     K19A14O  C2019 01 09.55474 10 03 20.987+37 51 38.76         21.8 wUEB068F51
     K19A14O  C2019 01 09.56686 10 03 20.143+37 51 44.66         21.6 wUEB068F51
     K19A14O ^C2019 01 12.64905209 59 45.147+38 16 00.53         21.73GVEB068568
     K19A14O ^C2019 01 12.64999809 59 45.072+38 16 00.91         21.69GVEB068568
     K19A14O ^C2019 01 12.65094909 59 45.000+38 16 01.31         21.61GVEB068568
     K19A14O  C2019 01 17.37253 09 53 27.38 +38 47 34.3          21.2 GVEB068V06
     K19A14O  C2019 01 17.37512 09 53 27.17 +38 47 35.3          22.5 GVEB068V06
     K19A14O  C2019 01 17.37772 09 53 26.94 +38 47 35.9          21.6 GVEB068V06
     K19A14O  C2019 01 17.38032 09 53 26.70 +38 47 36.9          22.3 GVEB068V06
     K19A14O  C2019 01 25.36246909 41 15.05 +39 21 25.4          21.5 GVEB068H01
     K19A14O  C2019 01 25.36742309 41 14.57 +39 21 26.2          21.5 GVEB068H01
     K19A14O  C2019 01 25.38000209 41 13.27 +39 21 27.7          21.2 GVEB068H01
     K19A14O  C2019 01 25.38506609 41 12.79 +39 21 28.7          21.6 GVEB068H01
     K19A14O  C2019 01 25.43874 09 41 07.67 +39 21 38.3          22.7 GVEB068V06
     K19A14O  C2019 01 25.45061 09 41 06.24 +39 21 38.3          22.7 GVEB068V06
     K19A14O  C2019 01 25.45473 09 41 05.83 +39 21 38.8          21.8 GVEB068V06
     K19A14O  C2019 01 25.45884 09 41 05.37 +39 21 39.5          22.9 GVEB068V06
 
Observer details:
568 Mauna Kea.  Observers R. Wainscoat, L. Wells, S. Prunet.  Measurers
    R. Weryk, R. Wainscoat.  3.6-m Canada-France-Hawaii Telescope + CCD.
F51 Pan-STARRS 1, Haleakala.  Observers J. Bulger, K. Chambers, T. Lowe,
    E. Magnier, A. Schultz, M. Willman.  Measurers S. Chastel, M. Huber,
    Y. Ramanjooloo, R. Wainscoat, R. Weryk, K. Chambers, L. Denneau,
    J. Fairlamb, H. Flewelling, C.-C. Lin, E. Magnier.  1.8-m
    Ritchey-Chretien + CCD.
H01 Magdalena Ridge Observatory, Socorro.  Observers W. H. Ryan, E. V. Ryan.
    Measurer W. H. Ryan.  2.4-m f/8.9 Ritchey-Chretien + CCD.
V06 Catalina Sky Survey-Kuiper.  Observers D. C. Fuls, B. M. Africano.
    Measurers B. M. Africano, E. J. Christensen, G. A. Farneth, D. C. Fuls,
    A. R. Gibbs, A. D. Grauer, H. Groeller, R. A. Kowalski, S. M. Larson,
    G. J. Leonard, R. L. Seaman, F. C. Shelly.  1.55-m reflector + CCD.
 
Orbital elements:
2019 AO14                                                Earth MOID = 0.2405 AU
Epoch 2019 Apr. 27.0 TT = JDT 2458600.5                 MPC
M  43.56506              (2000.0)            P               Q
n   0.21163774     Peri.   12.97483     +0.66064018     -0.74260531
a   2.7887354      Node    35.85468     +0.67090291     +0.51832493
e   0.5595587      Incl.   10.82072     +0.33681425     +0.42411864
P   4.66           H   20.6           G   0.15           U   4
Residuals in seconds of arc
181222 F51  0.2-  0.1+    190112 568  0.0   0.1-    190125 H01  0.1-  0.2-
181222 F51  0.0   0.1-    190112 568  0.0   0.1-    190125 H01  0.5-  0.5-
181222 F51  0.0   0.1+    190112 568  0.1+  0.1-    190125 H01  0.2-  0.3-
181222 F51  0.2+  0.1-    190117 V06  0.4-  0.1+    190125 V06  2.6+  1.5+
190109 F51  0.0   0.0     190117 V06  0.2-  0.1+    190125 V06  0.2-  0.1-
190109 F51  0.0   0.0     190117 V06  0.1-  0.2-    190125 V06  0.2-  0.1-
190109 F51  0.1-  0.1+    190117 V06  0.1-  0.1-    190125 V06  0.7-  0.1+
190109 F51  0.1+  0.0     190125 H01  0.4-  0.3-

Ephemeris:
2019 AO14                a,e,i = 2.79, 0.56, 11                  q = 1.2283
Date    TT    R. A. (2000) Decl.     Delta      r     Elong.  Phase     V
2018 12 26    10 12 33.2 +35 36 27   0.7291  1.5436   128.1    30.1    22.2
...
2019 01 10    10 02 51.9 +37 55 15   0.7484  1.6407   142.3    21.5    22.1
...
2019 01 18    09 52 33.3 +38 51 09   0.7720  1.6943   149.4    17.2    22.1
...
2019 01 24    09 43 25.2 +39 17 34   0.7974  1.7351   153.6    14.6    22.1
2019 01 25    09 41 49.9 +39 20 28   0.8023  1.7420   154.2    14.3    22.1
2019 01 26    09 40 14.0 +39 22 55   0.8074  1.7488   154.7    13.9    22.1
...
2019 02 01    09 30 36.0 +39 28 04   0.8425  1.7901   156.6    12.6    22.2
...
2019 02 09    09 18 30.0 +39 09 44   0.9013  1.8454   155.7    12.7    22.5
...
2019 02 24    09 01 46.9 +37 32 38   1.0478  1.9497   146.3    16.4    23.0

A. U. Tomatic                (C) Copyright 2019 MPC           M.P.E.C. 2019-B68



More information about the Iaude mailing list